Home   Weather   Genoa   Past weeks

Flag for Italy Past Weather in Genoa, Italy — Yesterday and Last 2 Weeks

Now
55 °F

Passing clouds.


Feels Like: 55 °F
Forecast: 51 / 60 °F
Wind: 2 mph from North

Location: Genova / Sestri

Current Time: Dec 9, 2016 at 6:30:10 pm

Latest Report: Dec 9, 2016 at 5:50 pm


Visibility: N/A

Pressure: 30.45 "Hg

Humidity: 67%

Dew Point: 45 °F

Location of GenoaLocation

Past Weather in Genoa — Graph

°F

Genoa Temperature Yesterday

Maximum temperature yesterday: 61 °F (at 12:20 pm)
Minimum temperature yesterday: 48 °F (at 4:20 am)
Average temperature yesterday: 53 °F

High & Low Weather Summary for the Past Weeks

 TemperatureHumidityPressure
High64 °F (Nov 24, 9:50 pm)94% (Nov 25, 5:20 am)30.60 "Hg (Nov 25, 5:20 am)
Low41 °F (Nov 30, 6:20 am)29% (Dec 8, 11:20 am)29.83 "Hg (Nov 25, 1:20 am)
Average53 °F64%30.21 "Hg
* Reported Nov 24 4:20 pm — Dec 9 4:50 pm, Genoa, Weather by CustomWeather, © 2016

Note: Actual official high and low records may vary slightly from our data, if they occured in-between our weather recording intervals... More about our weather records

Advertising

Genoa Weather History for the Previous 24 Hours

Scroll right to see more
 ConditionsComfort  
Time TempWeatherWind HumidityBarometerVisibility
4:50 pm
Fri, Dec 9
57 °FPassing clouds.5 mph63%30.45 "HgN/A
4:20 pm59 °FScattered clouds.5 mph59%30.45 "HgN/A
3:50 pm57 °FPartly sunny.6 mph63%30.45 "HgN/A
3:20 pm57 °FPartly sunny.6 mph59%30.45 "HgN/A
2:50 pm57 °FPartly sunny.5 mph63%30.45 "HgN/A
2:20 pm57 °FPartly sunny.7 mph72%30.45 "HgN/A
1:50 pm57 °FPartly sunny.6 mph77%30.45 "HgN/A
1:20 pm57 °FPartly sunny.12 mph77%30.48 "HgN/A
12:50 pm57 °FPartly sunny.10 mph77%30.48 "HgN/A
12:20 pm57 °FPartly sunny.10 mph77%30.48 "HgN/A
11:50 am57 °FPartly sunny.8 mph77%30.51 "HgN/A
11:20 am57 °FPartly sunny.1 mph72%30.51 "HgN/A
10:50 am55 °FScattered clouds.3 mph72%30.51 "HgN/A
10:20 am55 °FScattered clouds.3 mph72%30.51 "HgN/A
9:20 am52 °FPassing clouds.5 mph77%30.51 "HgN/A
8:50 am52 °FPassing clouds.5 mph77%30.51 "HgN/A
8:20 am50 °FPassing clouds.6 mph82%30.48 "HgN/A
7:50 am50 °FPassing clouds.5 mph82%30.48 "HgN/A
7:20 am50 °FPassing clouds.6 mph82%30.48 "HgN/A
6:50 am48 °FPassing clouds.6 mph82%30.48 "HgN/A
6:20 am50 °FPassing clouds.7 mph82%30.48 "HgN/A
5:50 am48 °FPassing clouds.6 mph87%30.48 "HgN/A
5:20 am50 °FPassing clouds.7 mph82%30.48 "HgN/A
4:50 am50 °FPassing clouds.6 mph82%30.48 "HgN/A
4:20 am50 °FPassing clouds.6 mph82%30.51 "HgN/A
3:50 am50 °FPassing clouds.6 mph82%30.51 "HgN/A
3:20 am50 °FPassing clouds.7 mph82%30.51 "HgN/A
2:50 am50 °FPassing clouds.6 mph82%30.54 "HgN/A
2:20 am50 °FPassing clouds.5 mph82%30.54 "HgN/A
1:50 am50 °FPassing clouds.5 mph82%30.54 "HgN/A
1:20 am50 °FPassing clouds.5 mph82%30.54 "HgN/A
12:50 am50 °FPassing clouds.6 mph82%30.54 "HgN/A
12:20 am50 °FPassing clouds.5 mph82%30.54 "HgN/A
11:50 pm
Thu, Dec 8
50 °FPassing clouds.6 mph82%30.57 "HgN/A
11:20 pm50 °FPassing clouds.6 mph82%30.57 "HgN/A
10:50 pm52 °FPassing clouds.5 mph77%30.57 "HgN/A
10:20 pm50 °FPassing clouds.5 mph82%30.57 "HgN/A
9:50 pm52 °FPassing clouds.6 mph77%30.57 "HgN/A
9:20 pm52 °FClear.7 mph77%30.54 "Hg10 mi
8:50 pm52 °FPassing clouds.3 mph77%30.54 "HgN/A
8:20 pm52 °FClear.6 mph77%30.54 "Hg10 mi
7:50 pm52 °FClear.7 mph77%30.54 "Hg10 mi
7:20 pm52 °FClear.6 mph77%30.54 "Hg10 mi
6:50 pm54 °FClear.6 mph72%30.54 "Hg10 mi
6:20 pm54 °FClear.6 mph72%30.54 "Hg10 mi
Weather by CustomWeather, © 2016

See weather overviewHow to use our weather pages